This is the latest recevied weather packets stored in our database for station/object F4ETJ-1. If no packets are shown the sender has not sent any weather packets the latest 10 day(s).
| Time | Temp. | Humidity | Pressure | Rain* | Wind** | Luminosity | Snow |
|---|---|---|---|---|---|---|---|
| 1777382931 | 24.44° C | 35% | 1009.8 hPa | 0 mm | - | - | - |
| 1777382571 | 24.44° C | 39% | 1009.7 hPa | 0 mm | - | - | - |
| 1777382211 | 25° C | 34% | 1009.9 hPa | 0 mm | - | - | - |
| 1777381850 | 25° C | 33% | 1010 hPa | 0 mm | - | - | - |
| 1777381490 | 24.44° C | 35% | 1010.1 hPa | 0 mm | - | - | - |
| 1777381130 | 24.44° C | 35% | 1010.1 hPa | 0 mm | - | - | - |
| 1777380769 | 24.44° C | 36% | 1010.2 hPa | 0 mm | - | - | - |
| 1777380409 | 24.44° C | 38% | 1010.2 hPa | 0 mm | - | - | - |
| 1777380049 | 24.44° C | 36% | 1010.3 hPa | 0 mm | - | - | - |
| 1777379688 | 24.44° C | 39% | 1010.3 hPa | 0 mm | - | - | - |
| 1777379328 | 23.89° C | 37% | 1010.3 hPa | 0 mm | - | - | - |
| 1777378968 | 23.89° C | 40% | 1010.5 hPa | 0 mm | - | - | - |
| 1777378607 | 23.33° C | 38% | 1010.5 hPa | 0 mm | - | - | - |
| 1777378247 | 23.89° C | 38% | 1010.5 hPa | 0 mm | - | - | - |
| 1777377887 | 23.89° C | 37% | 1010.6 hPa | 0 mm | - | - | - |
| 1777377526 | 23.33° C | 37% | 1010.8 hPa | 0 mm | - | - | - |
| 1777377166 | 23.33° C | 41% | 1010.7 hPa | 0 mm | - | - | - |
| 1777376806 | 23.33° C | 42% | 1010.8 hPa | 0 mm | - | - | - |
| 1777376445 | 22.78° C | 42% | 1010.9 hPa | 0 mm | - | - | - |
| 1777376085 | 22.78° C | 45% | 1011 hPa | 0 mm | - | - | - |
| 1777375725 | 22.22° C | 44% | 1011.2 hPa | 0 mm | - | - | - |
| 1777375364 | 22.22° C | 45% | 1011.2 hPa | 0 mm | - | - | - |
| 1777375004 | 22.78° C | 45% | 1011.2 hPa | 0 mm | - | - | - |
| 1777374643 | 22.78° C | 45% | 1011.2 hPa | 0 mm | - | - | - |
| 1777374283 | 22.22° C | 46% | 1011.3 hPa | 0 mm | - | - | - |
* Rain latest hour (hover to see other rain measurements)
** Current wind speed in m/s (hover to see current wind gust speed)